STARLINK-2517, 48309

Orbit data source: Space-Track

STARLINK-2517, 48309 is a payload satellite owned by SpaceX/Seattle (US) in LEO that was launched on Thu, 29 Apr 2021 UTC via an FALCON 9 launch vehicle from the Air Force Eastern Test Range (AFETR). Payload-class satellites include a variety of spacecraft equipped with specific instruments for various scientific and technological missions. These include communications satellites like Starlink; space stations such as the ISS; scientific satellites like the Hubble; Earth observation satellites from companies like Planet Labs, Umbra, and HawkEye 360; GPS; miniature CubeSats for education and research; and military/defense satellites.

Loading next visibility...
Identifier
48309, 2021-036AK
Orbit
LEO
Country
Flag of USUS
Related business
Manufacturer
SpaceX/Seattle
Mission
Operational Commercial Communications
Bus & Motor
STARLINK, Unknown motor
Mass
260 kg wet, ~248 kg dry
Launch date (UTC)
2021-04-29 (5 years ago)
Launch vehicle
FALCON 9
Launch site
Air Force Eastern Test Range (AFETR)
Object type
Payload
Rocket body
Debris
Shape & HBR
Box + 1 Pan, 10.1 m
Radar Cross Section
13.562 m², Large (>1 m²)

Expand to show TLE details & history
Last TLE update: 18 hours ago

TLE from 18 hours ago
0 STARLINK-2517
1 48309U 21036AK  26035.72270418  .00000471  00000-0  50492-4 0  9999
2 48309  53.0550 239.6126 0000987  87.5410 272.5692 15.06393490263208
Epoch: 2026-02-04T17:20Z
TLE epoch observation values (Epoch: 2026-02-04T17:20:41.641Z)
Latitude
-0°
Longitude
-155.44611°
Altitude
548.08 km
Speed
7.589 km/s
True Right ascension
15h 58m 27s
True Declination
0° 00' 00"
Sunlit
Object was in daylight at epoch
Visualization orbit readout
Latitude
Unknown
Longitude
Unknown
Altitude
Unknown
Speed
Unknown
Apparent Right ascension
Unknown
Apparent Declination
Unknown
Sunlit
N/A
Visualization observer readout
Local Sidereal Time
13:34:28
Azimuth
Unknown
Elevation
Unknown
Doppler factor
Unknown
Orbital elements
Apogee altitude
548.186 km
Perigee altitude
546.819 km
Semi-major axis
6,925.639 km
Eccentricity
0.0001
Inclination
53.055°
RAAN
239.6126°
Arg. of periapsis
87.541°
True anomaly
272.5579°
Mean anomaly
272.5692°
Eccentric anomaly
272.56355°
Mean motion
3.76577 °/min
Orbital period
95.6 mins
BSTAR
0.000050492
Loading maneuver chart data...
Computing Atmospheric mass density...
Loading historical data...
Loading historical data...
Loading historical data...
Loading historical data...
Loading historical data...
Loading historical data...
Loading historical data...

Documentation

Showing up to 5 results
|